Time,TemperatureF,DewpointF,PressureIn,WindDirection,WindDirectionDegrees,WindSpeedMPH,WindSpeedGustMPH,Humidity,HourlyPrecipIn,Conditions,Clouds,dailyrainin,SolarRadiationWatts/m^2,SoftwareType,DateUTC
2013-03-15 00:02:00,27.0,23.0,-100.00,NW,313,6.0,10.0,83,0.00,,,0.02,1.000000,,2013-03-15 05:02:00,
2013-03-15 00:32:00,27.0,22.0,-100.00,WNW,294,5.0,10.0,82,0.00,,,-99.99,1.000000,,2013-03-15 05:32:00,
2013-03-15 00:42:00,27.0,22.0,-100.00,WNW,294,5.0,10.0,82,0.00,,,-99.99,1.000000,,2013-03-15 05:42:00,
2013-03-15 00:52:00,27.0,22.0,-100.00,WNW,294,5.0,10.0,82,0.00,,,-99.99,1.000000,,2013-03-15 05:52:00,
2013-03-15 01:02:00,27.0,22.0,-100.00,WNW,294,5.0,10.0,82,0.00,,,-99.99,1.000000,,2013-03-15 06:02:00,
2013-03-15 01:32:00,26.0,21.0,-100.00,NNW,333,9.0,12.0,82,0.00,,,0.02,1.000000,,2013-03-15 06:32:00,
2013-03-15 01:42:00,26.0,21.0,-100.00,NNW,333,9.0,12.0,82,0.00,,,0.02,1.000000,,2013-03-15 06:42:00,
2013-03-15 01:53:00,26.0,21.0,-100.00,NNW,333,9.0,12.0,82,0.00,,,0.02,1.000000,,2013-03-15 06:53:00,
2013-03-15 02:02:00,26.0,21.0,-100.00,NNW,333,9.0,12.0,82,0.00,,,0.02,1.000000,,2013-03-15 07:02:00,
2013-03-15 02:32:00,25.0,19.0,-100.00,NNE,16,12.0,17.0,79,0.00,,,0.02,1.000000,,2013-03-15 07:32:00,
2013-03-15 02:42:00,25.0,19.0,-100.00,NNE,16,12.0,17.0,79,0.00,,,0.02,1.000000,,2013-03-15 07:42:00,
2013-03-15 02:52:00,25.0,19.0,-100.00,NNE,16,12.0,17.0,79,0.00,,,0.02,1.000000,,2013-03-15 07:52:00,
2013-03-15 03:02:00,25.0,19.0,-100.00,NNE,16,12.0,17.0,79,0.00,,,0.02,1.000000,,2013-03-15 08:02:00,
2013-03-15 03:33:00,24.0,18.0,-100.00,North,11,10.0,18.0,77,0.00,,,0.02,1.000000,,2013-03-15 08:33:00,
2013-03-15 03:42:00,24.0,18.0,-100.00,North,11,10.0,18.0,77,0.00,,,0.02,1.000000,,2013-03-15 08:42:00,
2013-03-15 03:52:00,24.0,18.0,-100.00,North,11,10.0,18.0,77,0.00,,,0.02,1.000000,,2013-03-15 08:52:00,
2013-03-15 04:02:00,24.0,18.0,-100.00,North,11,10.0,18.0,77,0.00,,,0.02,1.000000,,2013-03-15 09:02:00,
2013-03-15 04:33:00,23.0,16.0,-100.00,North,0,12.0,17.0,74,0.00,,,0.02,1.000000,,2013-03-15 09:33:00,
2013-03-15 04:43:00,23.0,16.0,-100.00,North,0,12.0,17.0,74,0.00,,,0.02,1.000000,,2013-03-15 09:43:00,
2013-03-15 04:53:00,23.0,16.0,-100.00,North,0,12.0,17.0,74,0.00,,,0.02,1.000000,,2013-03-15 09:53:00,
2013-03-15 05:03:00,23.0,16.0,-100.00,North,0,12.0,17.0,74,0.00,,,0.02,1.000000,,2013-03-15 10:03:00,
2013-03-15 05:33:00,22.0,15.0,-100.00,NNE,12,10.0,18.0,73,0.00,,,0.02,1.000000,,2013-03-15 10:33:00,
2013-03-15 05:43:00,22.0,15.0,-100.00,NNE,12,10.0,18.0,73,0.00,,,0.02,1.000000,,2013-03-15 10:43:00,
2013-03-15 05:52:00,22.0,15.0,-100.00,NNE,12,10.0,18.0,73,0.00,,,0.02,1.000000,,2013-03-15 10:52:00,
2013-03-15 06:03:00,22.0,15.0,-100.00,NNE,12,10.0,18.0,73,0.00,,,0.02,1.000000,,2013-03-15 11:03:00,
2013-03-15 06:32:00,20.0,13.0,-100.00,NNE,24,9.0,16.0,74,0.00,,,0.02,1.000000,,2013-03-15 11:32:00,
2013-03-15 06:42:00,20.0,13.0,-100.00,NNE,24,9.0,16.0,74,0.00,,,0.02,1.000000,,2013-03-15 11:42:00,
2013-03-15 06:52:00,20.0,13.0,-100.00,NNE,24,9.0,16.0,74,0.00,,,0.02,1.000000,,2013-03-15 11:52:00,
2013-03-15 07:02:00,20.0,13.0,-100.00,NNE,24,9.0,16.0,74,0.00,,,0.02,1.000000,,2013-03-15 12:02:00,
2013-03-15 07:32:00,20.0,13.0,-100.00,NNE,31,11.0,16.0,75,0.00,,,0.02,1.000000,,2013-03-15 12:32:00,
2013-03-15 07:42:00,20.0,13.0,-100.00,NNE,31,11.0,16.0,75,0.00,,,0.02,1.000000,,2013-03-15 12:42:00,
2013-03-15 07:52:00,20.0,13.0,-100.00,NNE,31,11.0,16.0,75,0.00,,,0.02,1.000000,,2013-03-15 12:52:00,
2013-03-15 08:02:00,20.0,13.0,-100.00,NNE,31,11.0,16.0,75,0.00,,,0.02,1.000000,,2013-03-15 13:02:00,
2013-03-15 08:32:00,19.0,13.0,-100.00,NNE,33,12.0,15.0,76,0.00,,,0.02,5.000000,,2013-03-15 13:32:00,
2013-03-15 08:42:00,19.0,13.0,-100.00,NNE,33,12.0,15.0,76,0.00,,,0.02,5.000000,,2013-03-15 13:42:00,
2013-03-15 08:52:00,19.0,13.0,-100.00,NNE,33,12.0,15.0,76,0.00,,,0.02,5.000000,,2013-03-15 13:52:00,
2013-03-15 09:02:00,19.0,13.0,-100.00,NNE,33,12.0,15.0,76,0.00,,,0.02,5.000000,,2013-03-15 14:02:00,
2013-03-15 09:33:00,20.0,13.0,-100.00,NE,47,8.0,16.0,75,0.00,,,0.02,56.000000,,2013-03-15 14:33:00,
2013-03-15 09:42:00,20.0,13.0,-100.00,NE,47,8.0,16.0,75,0.00,,,0.02,56.000000,,2013-03-15 14:42:00,
2013-03-15 09:53:00,20.0,13.0,-100.00,NE,47,8.0,16.0,75,0.00,,,0.02,56.000000,,2013-03-15 14:53:00,
2013-03-15 10:02:00,20.0,13.0,-100.00,NE,47,8.0,16.0,75,0.00,,,0.02,56.000000,,2013-03-15 15:02:00,
2013-03-15 10:33:00,21.0,14.0,-100.00,ENE,64,10.0,15.0,73,0.00,,,0.02,171.000000,,2013-03-15 15:33:00,
2013-03-15 10:43:00,21.0,14.0,-100.00,ENE,64,10.0,15.0,73,0.00,,,0.02,171.000000,,2013-03-15 15:43:00,
2013-03-15 10:53:00,21.0,14.0,-100.00,ENE,64,10.0,15.0,73,0.00,,,0.02,171.000000,,2013-03-15 15:53:00,
2013-03-15 11:03:00,21.0,14.0,-100.00,ENE,64,10.0,15.0,73,0.00,,,0.02,171.000000,,2013-03-15 16:03:00,
2013-03-15 11:32:00,22.0,13.0,-100.00,NE,51,9.0,14.0,69,0.00,,,0.00,133.000000,,2013-03-15 16:32:00,
2013-03-15 11:42:00,22.0,13.0,-100.00,NE,51,9.0,14.0,69,0.00,,,0.00,133.000000,,2013-03-15 16:42:00,
2013-03-15 11:52:00,22.0,13.0,-100.00,NE,51,9.0,14.0,69,0.00,,,0.00,133.000000,,2013-03-15 16:52:00,
2013-03-15 12:02:00,22.0,13.0,-100.00,NE,51,9.0,14.0,69,0.00,,,0.00,133.000000,,2013-03-15 17:02:00,
2013-03-15 12:32:00,23.0,11.0,-100.00,ENE,65,9.0,14.0,60,0.00,,,0.00,299.000000,,2013-03-15 17:32:00,
2013-03-15 12:43:00,23.0,11.0,-100.00,ENE,65,9.0,14.0,60,0.00,,,0.00,299.000000,,2013-03-15 17:43:00,
2013-03-15 12:53:00,23.0,11.0,-100.00,ENE,65,9.0,14.0,60,0.00,,,0.00,299.000000,,2013-03-15 17:53:00,
2013-03-15 13:02:00,23.0,11.0,-100.00,ENE,65,9.0,14.0,60,0.00,,,0.00,299.000000,,2013-03-15 18:02:00,
2013-03-15 13:32:00,23.0,9.0,-100.00,ENE,68,10.0,14.0,55,0.00,,,0.00,311.000000,,2013-03-15 18:32:00,
2013-03-15 13:42:00,23.0,9.0,-100.00,ENE,68,10.0,14.0,55,0.00,,,0.00,311.000000,,2013-03-15 18:42:00,
2013-03-15 13:52:00,23.0,9.0,-100.00,ENE,68,10.0,14.0,55,0.00,,,0.00,311.000000,,2013-03-15 18:52:00,
2013-03-15 14:02:00,23.0,9.0,-100.00,ENE,68,10.0,14.0,55,0.00,,,0.00,311.000000,,2013-03-15 19:02:00,
2013-03-15 14:32:00,23.0,8.0,-100.00,ENE,67,9.0,16.0,53,0.00,,,-99.99,345.000000,,2013-03-15 19:32:00,
2013-03-15 14:42:00,23.0,8.0,-100.00,ENE,67,9.0,16.0,53,0.00,,,-99.99,345.000000,,2013-03-15 19:42:00,
2013-03-15 14:52:00,23.0,8.0,-100.00,ENE,67,9.0,16.0,53,0.00,,,-99.99,345.000000,,2013-03-15 19:52:00,
2013-03-15 15:02:00,23.0,8.0,-100.00,ENE,67,9.0,16.0,53,0.00,,,-99.99,345.000000,,2013-03-15 20:02:00,
2013-03-15 15:32:00,23.0,10.0,-100.00,ENE,72,9.0,15.0,56,0.00,,,0.00,419.000000,,2013-03-15 20:32:00,
2013-03-15 15:42:00,23.0,10.0,-100.00,ENE,72,9.0,15.0,56,0.00,,,0.00,419.000000,,2013-03-15 20:42:00,
2013-03-15 15:52:00,23.0,10.0,-100.00,ENE,72,9.0,15.0,56,0.00,,,0.00,419.000000,,2013-03-15 20:52:00,
2013-03-15 16:02:00,23.0,10.0,-100.00,ENE,72,9.0,15.0,56,0.00,,,0.00,419.000000,,2013-03-15 21:02:00,
2013-03-15 16:33:00,21.0,13.0,-100.00,NE,54,11.0,17.0,72,0.00,,,0.00,227.000000,,2013-03-15 21:33:00,
2013-03-15 16:43:00,21.0,13.0,-100.00,NE,54,11.0,17.0,72,0.00,,,0.00,227.000000,,2013-03-15 21:43:00,
2013-03-15 16:53:00,21.0,13.0,-100.00,NE,54,11.0,17.0,72,0.00,,,0.00,227.000000,,2013-03-15 21:53:00,
2013-03-15 17:03:00,21.0,13.0,-100.00,NE,54,11.0,17.0,72,0.00,,,0.00,227.000000,,2013-03-15 22:03:00,
2013-03-15 17:33:00,19.0,15.0,-100.00,NNE,30,8.0,12.0,85,0.00,,,0.00,83.000000,,2013-03-15 22:33:00,
2013-03-15 17:42:00,19.0,15.0,-100.00,NNE,30,8.0,12.0,85,0.00,,,0.00,83.000000,,2013-03-15 22:42:00,
2013-03-15 17:53:00,19.0,15.0,-100.00,NNE,30,8.0,12.0,85,0.00,,,0.00,83.000000,,2013-03-15 22:53:00,
2013-03-15 18:02:00,19.0,15.0,-100.00,NNE,30,8.0,12.0,85,0.00,,,0.00,83.000000,,2013-03-15 23:02:00,
2013-03-15 18:32:00,18.0,14.0,-100.00,NE,46,12.0,15.0,84,0.00,,,0.00,99.000000,,2013-03-15 23:32:00,
2013-03-15 18:42:00,18.0,14.0,-100.00,NE,46,12.0,15.0,84,0.00,,,0.00,99.000000,,2013-03-15 23:42:00,
2013-03-15 18:53:00,18.0,14.0,-100.00,NE,46,12.0,15.0,84,0.00,,,0.00,99.000000,,2013-03-15 23:53:00,
2013-03-15 19:02:00,18.0,14.0,-100.00,NE,46,12.0,15.0,84,0.00,,,0.00,99.000000,,2013-03-16 00:02:00,
2013-03-15 19:32:00,17.0,12.0,-100.00,NE,49,11.0,18.0,82,0.00,,,0.00,41.000000,,2013-03-16 00:32:00,
2013-03-15 19:42:00,17.0,12.0,-100.00,NE,49,11.0,18.0,82,0.00,,,0.00,41.000000,,2013-03-16 00:42:00,
2013-03-15 19:52:00,17.0,12.0,-100.00,NE,49,11.0,18.0,82,0.00,,,0.00,41.000000,,2013-03-16 00:52:00,
2013-03-15 20:02:00,17.0,12.0,-100.00,NE,49,11.0,18.0,82,0.00,,,0.00,41.000000,,2013-03-16 01:02:00,
2013-03-15 20:32:00,15.0,11.0,-100.00,NE,45,11.0,20.0,83,0.00,,,0.00,2.000000,,2013-03-16 01:32:00,
2013-03-15 20:42:00,15.0,11.0,-100.00,NE,45,11.0,20.0,83,0.00,,,0.00,2.000000,,2013-03-16 01:42:00,
2013-03-15 20:53:00,15.0,11.0,-100.00,NE,45,11.0,20.0,83,0.00,,,0.00,2.000000,,2013-03-16 01:53:00,
2013-03-15 21:02:00,15.0,11.0,-100.00,NE,45,11.0,20.0,83,0.00,,,0.00,2.000000,,2013-03-16 02:02:00,
2013-03-15 21:33:00,13.0,8.0,-100.00,NE,43,12.0,19.0,81,0.00,,,0.00,1.000000,,2013-03-16 02:33:00,
2013-03-15 21:43:00,13.0,8.0,-100.00,NE,43,12.0,19.0,81,0.00,,,0.00,1.000000,,2013-03-16 02:43:00,
2013-03-15 21:52:00,13.0,8.0,-100.00,NE,43,12.0,19.0,81,0.00,,,0.00,1.000000,,2013-03-16 02:52:00,
2013-03-15 22:02:00,13.0,8.0,-100.00,NE,43,12.0,19.0,81,0.00,,,0.00,1.000000,,2013-03-16 03:02:00,
2013-03-15 22:33:00,12.0,8.0,-100.00,NNE,26,8.0,16.0,82,0.00,,,0.00,1.000000,,2013-03-16 03:33:00,
2013-03-15 22:43:00,12.0,8.0,-100.00,NNE,26,8.0,16.0,82,0.00,,,0.00,1.000000,,2013-03-16 03:43:00,
2013-03-15 22:53:00,12.0,8.0,-100.00,NNE,26,8.0,16.0,82,0.00,,,0.00,1.000000,,2013-03-16 03:53:00,
2013-03-15 23:02:00,12.0,8.0,-100.00,NNE,26,8.0,16.0,82,0.00,,,0.00,1.000000,,2013-03-16 04:02:00,
2013-03-15 23:33:00,11.0,6.0,-100.00,NE,46,9.0,14.0,80,0.00,,,0.00,1.000000,,2013-03-16 04:33:00,
2013-03-15 23:43:00,11.0,6.0,-100.00,NE,46,9.0,14.0,80,0.00,,,0.00,1.000000,,2013-03-16 04:43:00,
2013-03-15 23:53:00,11.0,6.0,-100.00,NE,46,9.0,14.0,80,0.00,,,0.00,1.000000,,2013-03-16 04:53:00,